• Join FlightAware (Why Join?)
  • Login
  • US Flag GB Flag 
08:55 EDT


 

Airport Tracker/Info


-or-


 

Live Flight TrackerFlight Track Log ✈ N135SH ✈ 11-May-2013 ✈ KBKL - KPDK

Flight Track Log - Related Links

Times and Time Zones

All times are in EDT time to prevent confusion due to time zone crossing. See the N135SH flight status page for this flight to view local times or setup timezone preferences in your user account.

Time Position Orientation Groundspeed Altitude Reporting Facility
EDT Latitude Longitude Course Direction KTS MPH feet Rate Location/Type
12:30 41.5306 -81.7703 296° West 239 275 2,100  Level Cleveland Center
12:31 41.5572 -81.8125 310° West 245 282 3,100 1,800 Climbing Cleveland Center
12:32 41.5583 -81.9067 271° West 256 295 5,400 1,500 Climbing Cleveland Center
12:33 41.5406 -81.9953 255° West 251 289 6,100 900 Climbing Cleveland Center
12:34 41.4778 -82.0269 201° Southwest 217 250 7,200 2,520 Climbing Cleveland Center
12:35 41.4328 -81.9375 124° Southeast 239 275 11,200 2,700 Climbing Cleveland Center
12:36 41.3883 -81.8258 118° Southeast 299 344 12,600 2,340 Climbing Cleveland Center
12:37 41.3206 -81.7278 133° Southeast 335 386 15,900 3,240 Climbing Cleveland Center
12:38 41.2336 -81.6711 154° Southeast 345 397 19,100 2,700 Climbing Cleveland Center
12:39 41.1442 -81.6392 165° South 339 390 21,300 1,440 Climbing Cleveland Center
12:40 41.0478 -81.6900 202° Southwest 335 386 22,000 600 Climbing Cleveland Center
12:41 40.9389 -81.7375 198° South 357 411 22,600 1,500 Climbing Cleveland Center
12:43 40.7533 -81.8214 199° South 360 414 26,800 1,860 Climbing Indianapolis Center
12:44 40.6539 -81.8675 199° South 374 430 28,400 1,800 Climbing Indianapolis Center
12:45 40.5353 -81.9228 200° South 383 441 30,600 2,100 Climbing Indianapolis Center
12:46 40.4336 -81.9683 199° South 383 441 32,800 2,040 Climbing Indianapolis Center
12:47 40.3350 -82.0139 199° South 374 430 34,900 1,920 Climbing Indianapolis Center
12:48 40.2389 -82.0575 199° South 364 419 36,800 1,260 Climbing Indianapolis Center
12:49 40.1428 -82.0997 199° South 364 419 37,500 780 Climbing Indianapolis Center
12:51 40.0442 -82.1439 199° South 369 425 38,400 720 Climbing Indianapolis Center
12:52 39.9458 -82.1889 199° South 369 425 39,000 480 Climbing Indianapolis Center
12:53 39.8464 -82.2322 198° South 371 427 39,400 360 Climbing Indianapolis Center
12:54 39.7453 -82.2789 200° South 377 434 39,800 240 Climbing Indianapolis Center
12:55 39.6425 -82.3239 199° South 382 440 40,000 60 Climbing Indianapolis Center
12:56 39.5383 -82.3700 199° South 388 447 40,000  Level Indianapolis Center
12:57 39.4369 -82.4139 198° South 397 457 40,000  Level Indianapolis Center
12:58 39.3097 -82.4719 199° South 402 463 40,000  Level Indianapolis Center
12:59 39.2156 -82.5111 198° South 402 463 40,000  Level Indianapolis Center
13:00 39.0997 -82.5619 199° South 398 458 40,000  Level Indianapolis Center
13:01 38.9950 -82.6075 199° South 398 458 40,000  Level Indianapolis Center
13:02 38.8900 -82.6525 198° South 397 457 40,000  Level Indianapolis Center
13:03 38.7875 -82.6981 199° South 392 451 40,000  Level Indianapolis Center
13:04 38.6844 -82.7428 199° South 391 450 40,000  Level Indianapolis Center
13:05 38.5689 -82.7928 199° South 391 450 40,000  Level Indianapolis Center
13:06 38.4672 -82.8367 199° South 385 443 40,000  Level Indianapolis Center
13:07 38.3644 -82.8797 198° South 385 443 40,000  Level Indianapolis Center
13:08 38.2614 -82.9233 198° South 388 447 40,000  Level Indianapolis Center
13:09 38.1408 -82.9742 198° South 390 449 40,000  Level Indianapolis Center
13:10 38.0392 -83.0192 199° South 388 447 40,000  Level Indianapolis Center
13:11 37.9369 -83.0614 198° South 387 445 40,000  Level Indianapolis Center
13:12 37.8331 -83.1053 198° South 391 450 40,000  Level Indianapolis Center
13:13 37.7297 -83.1489 198° South 391 450 40,000  Level Indianapolis Center
13:14 37.6283 -83.1914 198° South 384 442 40,000  Level Indianapolis Center
13:15 37.5261 -83.2339 198° South 386 444 40,000  Level Indianapolis Center
13:16 37.4069 -83.2833 198° South 386 444 40,000  Level Indianapolis Center
13:17 37.3050 -83.3247 198° South 388 447 40,000  Level Indianapolis Center
13:18 37.2025 -83.3675 198° South 388 447 40,000  Level Indianapolis Center
13:19 37.1008 -83.4106 199° South 388 447 40,000  Level Indianapolis Center
13:20 36.9983 -83.4519 198° South 389 448 40,000  Level Indianapolis Center
13:21 36.8950 -83.4950 198° South 391 450 40,000  Level Indianapolis Center
13:22 36.7750 -83.5425 198° South 390 449 40,000  Level Indianapolis Center
13:23 36.6714 -83.5856 198° South 393 452 40,000  Level Indianapolis Center
13:24 36.5669 -83.6261 197° South 394 453 40,000 -300 Level Indianapolis Center
13:25 36.4528 -83.6519 190° South 398 458 39,400 -720 Descending Indianapolis Center
13:26 36.3383 -83.6561 182° South 408 470 38,600 -960 Descending Indianapolis Center
13:27 36.2933 -83.6600 184° South 402 463 38,000 -1,500 Descending Atlanta Center
13:28 36.1892 -83.6658 183° South 391 450 36,400 -1,560 Descending Atlanta Center
13:29 36.0786 -83.6689 181° South 391 450 34,900 -1,320 Descending Atlanta Center
13:30 35.9722 -83.6719 181° South 391 450 33,800 -1,020 Descending Atlanta Center
13:31 35.8658 -83.6750 181° South 385 443 32,900 -1,080 Descending Atlanta Center
13:32 35.7575 -83.6778 181° South 385 443 31,700 -1,560 Descending Atlanta Center
13:33 35.6469 -83.6836 182° South 390 449 29,800 -2,340 Descending Atlanta Center
13:34 35.5300 -83.6867 181° South 405 466 27,100 -2,400 Descending Atlanta Center
13:35 35.4131 -83.6897 181° South 417 480 25,100 -1,560 Descending Atlanta Center
13:36 35.3025 -83.6928 181° South 417 480 24,000 -600 Descending Atlanta Center
13:37 35.1817 -83.6983 182° South 411 473 23,900 -1,260 Descending Atlanta Center
13:38 35.0647 -83.6986 180° South 405 466 21,500 -2,100 Descending Atlanta Center
13:39 34.9625 -83.7244 192° South 396 456 19,700 -2,100 Descending Atlanta Center
13:40 34.8792 -83.7678 203° Southwest 367 422 17,400 -2,400 Descending Atlanta Center
13:41 34.7958 -83.8161 205° Southwest 356 410 15,000 -2,280 Descending Atlanta Center
13:42 34.7125 -83.8594 203° Southwest 332 382 12,900 -1,560 Descending Atlanta Center
13:43 34.6331 -83.9075 206° Southwest 323 372 11,900 -1,200 Descending Atlanta Center
13:44 34.5519 -83.9506 204° Southwest 323 372 10,600 -1,200 Descending Atlanta Center
13:45 34.4725 -83.9883 201° Southwest 299 344 9,600 -1,260 Descending Atlanta Center
13:46 34.4058 -84.0236 204° Southwest 279 321 8,100 -840 Descending Atlanta Center
13:47 34.3389 -84.0589 204° Southwest 274 315 8,000 -60 Descending Atlanta Center
13:48 34.2764 -84.0917 203° Southwest 260 299 8,000 -300 Level Atlanta Center
13:49 34.2178 -84.1367 212° Southwest 253 291 7,500 -900 Descending Atlanta Center
13:50 34.1614 -84.1719 207° Southwest 246 283 6,300 -1,320 Descending Atlanta Center
13:51 34.1000 -84.2000 201° Southwest 234 269 4,900 -1,320 Descending Atlanta TRACON
13:52 34.0333 -84.2333 203° Southwest 231 266 3,700 -660 Descending Atlanta TRACON
13:53 34.0000 -84.2500 203° Southwest 169 194 3,600 -660 Descending Atlanta TRACON
13:54 33.9500 -84.2667 195° South 169 194 2,400 -1,020 Descending Atlanta TRACON
13:55 33.9167 -84.2833 203° Southwest 122 140 1,600 -840 Descending Atlanta TRACON
13:57 33.8756 -84.3020 209° Southwest  Level Estimated
14:04 33.8756 -84.3020 209° Southwest  Level Estimated
14:05 33.8756 -84.3020 209° Southwest  Level Estimated